Wind_Speed
90 90 91 93 94 95 96 97 98 99 100 101 101 102 103 103 104 105 106 106 107 107 107 107 107 107 107 107 108 108 108 108 108 108 108 108 108 109 109 109 109 109 109 109 109 109 108 108 107 106 106 106
90 90 91 92 93 94 95 96 97 98 99 100 101 102 102 103 103 104 105 106 106 106 106 106 106 107 107 107 108 108 108 108 109 109 110 110 111 111 111 111 112 112 112 112 112 112 111 111 110 109 109 110
91 92 92 93 94 95 95 96 97 97 98 99 100 101 102 102 102 103 104 105 105 106 106 106 106 106 107 107 108 108 108 108 109 109 110 110 111 112 112 112 113 113 114 114 114 114 114 114 114 113 112 112
90 91 92 93 93 94 95 96 97 97 98 99 100 101 102 102 103 103 104 105 105 106 106 106 106 106 107 107 108 108 108 109 110 110 110 110 111 112 112 112 112 113 113 114 114 115 115 115 115 115 115 114
84 86 87 88 89 90 91 92 94 95 96 98 99 100 101 101 102 103 103 104 105 105 106 106 106 107 107 108 109 109 109 110 110 111 111 112 112 113 113 113 113 113 113 114 114 114 115 115 116 116 116 116
76 77 79 81 82 84 85 86 88 90 91 93 94 95 96 97 98 99 100 101 102 103 104 105 106 106 107 108 109 109 109 109 110 111 112 113 113 114 114 115 115 115 115 115 116 116 116 116 117 117 117 117
68 69 71 72 74 76 77 79 81 82 84 86 88 89 90 92 93 94 95 96 97 98 99 101 102 103 104 105 106 107 107 108 109 110 111 112 113 113 114 115 116 116 116 117 118 118 119 119 119 120 120 120
61 62 63 65 66 67 69 71 73 74 76 78 79 81 83 84 86 88 89 90 92 93 94 96 97 98 99 101 102 103 103 104 105 106 107 108 109 111 112 113 114 114 115 116 117 118 119 119 120 121 121 122
56 57 58 60 61 62 63 65 66 68 70 71 72 74 75 76 78 80 82 84 86 88 90 91 93 94 96 97 98 99 100 100 101 102 103 104 105 106 107 109 110 111 112 113 114 115 116 117 118 119 119 120
56 57 58 59 60 61 62 63 64 65 67 68 69 71 72 73 74 75 77 78 80 82 84 86 88 89 91 93 95 96 98 99 99 100 100 101 102 103 103 104 105 106 107 108 109 111 112 113 114 115 116 117
59 60 61 61 62 63 63 64 65 65 66 67 69 70 71 72 73 74 75 77 78 80 81 82 84 85 87 88 90 91 93 95 96 97 98 100 101 102 102 103 103 104 105 105 106 107 108 109 110 111 112 113
63 64 64 65 65 66 67 67 68 68 69 69 70 70 71 72 73 74 74 75 77 78 80 81 82 84 85 86 87 88 89 90 91 92 94 95 97 99 100 101 102 103 104 105 105 106 106 107 108 108 109 110
67 68 68 69 70 70 71 72 72 73 73 74 74 74 74 74 75 75 76 76 77 78 79 80 81 83 84 86 86 87 88 88 89 90 90 91 93 94 95 97 98 100 101 103 104 105 106 106 107 108 109 109
72 72 73 74 75 75 76 77 78 78 79 79 79 79 79 79 79 79 79 79 80 80 81 81 82 83 84 85 87 87 88 88 89 89 90 90 91 92 93 94 95 96 97 99 100 102 104 105 106 107 108 109
77 77 78 79 80 81 81 82 82 83 83 83 84 84 84 84 84 84 84 84 84 84 84 85 85 85 85 86 87 88 89 89 89 90 90 91 91 92 92 93 93 94 95 96 98 99 100 102 103 105 107 108
80 81 82 83 84 84 85 85 86 86 86 87 87 88 88 88 88 88 89 89 89 89 89 89 89 88 88 88 89 89 90 90 91 91 92 92 93 93 93 93 94 94 95 96 97 98 99 100 101 103 105 106
83 84 85 85 86 87 87 88 88 89 89 90 90 91 91 92 92 93 93 93 93 93 92 92 92 92 92 91 91 91 92 92 93 93 94 95 95 95 96 96 96 96 96 97 97 98 99 100 101 102 103 104
85 86 87 87 88 89 90 90 91 92 92 93 93 94 95 95 96 96 96 96 96 96 96 96 96 95 95 95 94 94 94 95 95 96 96 97 98 98 98 98 98 99 99 99 99 99 100 100 101 102 102 103
87 88 89 89 90 92 92 93 94 94 95 96 97 98 98 99 99 100 100 99 99 99 99 99 99 99 98 98 97 97 97 97 98 98 98 99 100 101 101 101 101 101 102 102 102 102 102 102 102 103 103 103
89 91 91 92 93 94 95 96 97 98 99 100 101 102 102 103 103 103 103 102 102 102 102 101 101 101 101 100 100 100 100 100 100 100 101 101 102 103 103 103 103 104 104 105 105 105 105 105 105 105 105 105
93 94 95 96 97 98 99 100 101 102 103 104 105 105 105 105 105 105 105 104 104 103 103 103 102 102 102 102 102 102 102 102 102 102 103 103 104 104 105 105 105 106 107 107 108 108 108 108 108 108 108 108
97 99 100 101 102 103 104 105 106 107 108 108 108 108 108 107 107 106 106 105 105 104 104 104 104 104 104 104 104 104 105 105 105 105 105 106 106 107 107 108 108 109 109 110 111 111 112 112 112 112 111 111
101 103 104 106 107 108 108 109 110 111 111 111 111 110 109 108 108 107 107 106 106 106 106 106 106 106 106 106 106 106 107 107 108 108 108 109 109 110 110 111 111 112 113 113 113 114 115 115 115 115 114 113
105 107 109 110 111 112 112 113 113 113 113 113 112 111 110 109 109 108 108 108 108 108 108 108 108 108 108 108 108 108 108 108 109 110 110 111 111 112 112 113 114 115 115 116 116 117 117 117 117 116 116 115
110 111 113 114 114 115 115 115 115 115 115 114 113 111 111 111 110 110 110 110 110 110 110 110 109 110 109 109 109 109 109 110 110 111 112 112 113 113 114 115 116 116 117 117 118 118 118 118 118 117 117 116
113 115 116 116 117 117 117 117 116 116 115 114 113 112 112 113 112 112 112 111 111 111 110 110 110 110 110 110 110 110 110 110 111 112 113 113 114 114 115 116 116 117 118 118 118 118 118 118 118 118 117 116
117 118 118 118 118 118 117 117 116 116 115 114 113 113 113 113 113 112 111 110 109 108 108 107 107 106 107 107 107 108 108 109 109 110 111 112 113 114 114 114 115 116 116 117 117 117 117 116 116 116 115 114
120 120 120 120 119 118 117 117 116 115 114 113 112 112 111 110 109 107 106 105 104 103 102 101 101 101 101 101 102 102 103 104 104 105 106 107 108 109 110 111 111 111 112 112 112 112 112 112 112 112 112 111
122 122 121 120 118 117 116 116 114 113 112 109 108 106 105 103 102 100 98 97 96 95 94 94 94 94 94 95 95 95 96 97 98 98 99 100 101 102 103 104 104 104 104 105 105 105 105 106 106 106 107 107
123 122 121 118 117 115 114 111 109 107 105 103 101 99 97 96 94 92 91 89 89 88 88 87 87 88 88 88 88 89 89 90 91 91 92 93 94 94 95 96 96 97 98 98 98 98 98 99 99 100 101 101
123 121 119 116 113 110 107 104 101 99 97 95 93 92 91 89 88 86 85 84 83 83 83 82 82 82 83 83 83 83 84 85 85 86 86 87 87 88 89 89 90 91 92 92 92 92 93 93 94 94 95 96
Wind_Direction
271 271 271 271 271 271 271 271 271 271 271 271 271 271 271 271 272 272 272 272 272 272 273 273 273 273 273 273 273 273 273 273 274 274 274 274 274 274 274 274 274 274 274 274 274 273 273 273 273 273 273 272
272 272 272 272 272 272 272 271 271 271 271 271 271 271 271 271 271 271 271 271 271 271 271 271 271 271 271 271 271 271 272 272 272 272 272 272 272 273 273 273 273 273 273 273 273 273 273 272 272 272 272 272
274 273 273 273 273 273 273 273 272 272 272 272 272 272 272 272 272 272 272 271 271 271 271 271 271 271 271 271 271 271 271 271 271 271 271 271 271 271 271 271 271 272 272 272 272 272 272 272 272 271 271 271
275 275 275 275 274 274 274 274 273 273 273 273 273 273 273 273 273 273 273 273 272 272 272 271 271 271 271 271 271 271 271 271 271 271 270 270 270 270 270 270 270 270 270 270 270 270 271 271 271 270 270 270
277 277 276 276 276 276 275 275 275 274 274 274 274 274 274 274 273 273 273 273 273 273 272 272 271 271 271 271 271 272 272 272 272 271 271 271 271 271 271 271 270 270 270 269 269 269 269 270 270 270 270 269
277 277 277 277 277 277 277 277 276 276 275 275 275 275 274 274 274 274 274 274 273 273 273 273 272 272 272 272 272 272 272 272 272 272 272 272 272 271 271 271 271 271 271 271 270 270 270 270 270 270 270 270
276 276 276 277 277 277 277 277 277 277 277 276 276 276 276 276 275 275 275 275 275 275 274 274 273 273 273 272 272 272 272 272 271 272 272 272 272 272 272 272 272 272 271 271 271 271 271 271 271 271 271 271
278 278 278 278 278 278 277 277 277 277 277 278 278 277 277 277 277 277 277 276 276 276 276 275 275 274 274 274 273 273 272 272 272 272 272 272 272 272 272 272 272 272 272 271 271 271 271 272 272 272 272 271
282 282 282 281 281 280 280 279 279 278 278 278 279 278 278 278 278 278 278 278 277 277 277 276 276 276 275 275 274 274 273 273 272 272 272 272 272 272 272 272 272 272 272 272 272 272 272 272 272 272 272 272
285 284 284 284 283 283 282 282 281 281 280 280 279 279 279 279 279 279 279 279 278 278 277 277 277 276 276 275 275 274 274 274 273 273 273 273 272 272 273 273 273 273 273 273 273 273 273 273 273 272 272 272
286 286 285 285 285 284 284 284 283 283 282 282 281 281 281 280 280 280 279 279 279 279 279 278 278 277 277 276 276 275 275 275 274 274 274 273 273 273 273 273 273 273 273 273 273 273 273 273 274 274 274 273
288 287 287 287 286 286 286 285 285 285 285 284 284 283 283 282 282 281 280 280 280 279 279 279 279 278 278 278 277 277 276 276 275 275 274 274 274 274 274 273 273 273 273 273 273 273 273 273 274 274 274 274
290 289 289 289 289 288 288 288 287 287 287 286 285 285 285 284 284 283 282 282 281 281 280 280 280 279 279 278 278 277 277 277 276 276 276 275 275 275 275 274 274 274 274 274 274 274 273 273 274 274 274 274
292 291 291 291 291 291 290 290 290 289 289 288 287 287 287 286 286 285 285 284 284 283 283 282 282 281 280 279 278 278 277 277 277 276 276 276 276 276 275 275 275 275 275 275 275 275 274 274 274 274 274 274
294 293 293 293 292 292 291 291 291 290 290 290 289 289 289 288 288 287 287 286 286 285 285 284 284 283 282 280 279 278 277 277 276 276 276 276 276 275 275 275 275 275 275 275 275 275 275 275 275 274 274 274
295 294 294 293 293 292 292 291 291 291 290 290 290 290 290 290 289 289 288 288 287 287 286 285 285 284 283 282 280 279 278 277 277 276 276 276 276 275 275 275 275 275 275 275 275 275 275 275 275 275 274 274
296 295 294 294 293 293 292 292 292 291 291 291 291 291 290 290 290 290 289 288 288 287 287 286 285 284 284 283 281 280 279 278 278 277 277 277 276 276 276 275 275 275 275 275 275 275 275 275 275 275 274 274
297 296 295 295 294 294 293 293 292 292 292 292 292 292 291 291 291 290 289 289 288 288 287 286 285 285 284 283 282 281 280 279 279 278 277 277 277 277 276 276 276 276 276 276 276 276 275 275 275 275 275 274
297 296 296 295 295 294 294 294 294 293 293 293 293 293 292 292 291 290 290 289 288 288 287 286 285 285 284 283 282 282 281 280 279 278 278 277 277 277 277 276 276 276 276 276 276 276 276 276 276 276 276 275
297 297 296 296 296 295 295 295 295 295 295 294 294 293 293 292 291 290 289 289 288 287 286 286 285 284 284 283 282 281 281 280 279 278 278 277 277 277 276 276 276 276 276 277 277 277 277 277 277 277 276 276
298 297 297 297 297 297 297 297 297 296 296 295 294 293 292 291 290 290 289 288 287 286 285 285 284 283 283 282 282 281 280 280 279 278 278 277 277 277 276 276 276 276 276 276 277 277 277 277 277 277 276 276
299 299 299 299 299 299 298 298 298 297 296 295 294 293 292 291 290 289 288 287 286 286 285 284 283 282 282 281 281 280 280 279 279 278 278 277 277 276 276 276 276 276 276 276 276 276 276 276 276 276 276 275
300 300 300 300 300 300 299 299 298 297 296 295 294 293 292 291 290 289 288 287 286 285 284 284 283 282 281 281 280 279 279 278 278 277 277 277 276 276 276 276 275 275 275 275 275 275 275 275 275 275 275 275
302 302 301 301 301 300 300 299 298 297 296 295 294 293 292 291 289 288 287 286 286 285 284 283 282 282 281 280 279 279 278 277 277 276 276 276 275 275 275 275 274 274 274 274 274 274 274 274 274 274 274 274
303 303 302 302 301 300 299 298 298 297 295 294 293 292 291 290 289 288 287 286 285 284 283 282 282 281 280 279 278 278 277 276 276 275 275 274 274 274 273 273 273 273 273 273 273 273 273 273 273 273 272 272
304 303 302 301 301 300 299 298 297 296 295 294 293 292 291 289 288 287 286 285 284 283 282 281 280 279 279 278 277 276 276 275 275 274 274 273 273 273 272 272 272 272 272 272 272 271 271 271 271 271 271 271
304 303 302 302 301 300 299 298 296 295 294 293 292 291 289 288 287 285 284 283 282 281 280 279 279 278 277 276 276 275 274 274 273 273 272 272 272 272 271 271 271 271 271 271 271 271 270 270 270 270 270 270
305 304 303 302 302 300 299 298 296 295 294 292 291 289 288 287 285 284 283 282 281 280 279 278 277 277 276 275 274 274 273 273 272 272 271 271 271 271 271 270 270 270 270 270 270 270 270 269 269 269 269 268
305 304 304 303 302 300 299 297 296 294 293 291 290 288 287 286 285 284 283 281 281 280 279 278 277 276 275 274 274 273 272 272 271 271 271 270 270 270 270 270 269 269 269 269 269 269 269 269 269 268 268 268
306 305 304 303 301 299 298 296 295 294 292 291 290 289 287 286 285 284 283 282 281 280 279 278 277 276 275 274 274 273 272 271 271 270 270 270 270 270 269 269 269 269 269 269 269 268 268 268 268 268 268 267
306 305 304 302 300 299 297 296 295 293 292 291 289 288 287 286 285 284 283 283 282 280 279 278 277 276 276 275 274 273 273 272 271 271 270 270 270 270 270 270 270 270 270 270 269 269 268 268 268 268 267 267
Height
10793 10793 10791 10789 10788 10786 10784 10783 10781 10780 10779 10778 10776 10775 10774 10773 10772 10771 10769 10768 10768 10767 10766 10766 10766 10764 10762 10762 10760 10758 10759 10759 10756 10756 10756 10755 10752 10751 10750 10749 10749 10748 10747 10746 10745 10744 10744 10742 10742 10742 10739 10739
10784 10784 10782 10780 10778 10777 10775 10773 10771 10770 10768 10767 10766 10764 10764 10764 10762 10760 10758 10757 10757 10756 10755 10755 10755 10753 10750 10750 10748 10747 10749 10748 10745 10745 10744 10743 10741 10740 10740 10739 10739 10737 10736 10735 10734 10732 10732 10731 10731 10732 10729 10728
10775 10774 10773 10770 10769 10767 10766 10764 10761 10760 10759 10757 10755 10753 10752 10753 10752 10750 10747 10746 10745 10745 10745 10744 10744 10742 10739 10738 10737 10736 10738 10736 10734 10733 10732 10731 10729 10728 10728 10727 10727 10726 10724 10723 10722 10721 10720 10719 10719 10720 10720 10718
10767 10765 10763 10761 10759 10758 10756 10754 10752 10750 10749 10748 10745 10743 10742 10741 10740 10739 10737 10735 10734 10733 10732 10732 10732 10731 10729 10727 10725 10725 10725 10724 10722 10721 10720 10719 10717 10716 10715 10715 10715 10713 10712 10711 10710 10709 10707 10706 10705 10706 10708 10707
10758 10756 10754 10752 10750 10748 10747 10745 10743 10740 10739 10737 10735 10733 10732 10731 10730 10728 10726 10724 10723 10722 10720 10719 10719 10719 10717 10715 10714 10713 10713 10712 10710 10709 10708 10707 10705 10704 10703 10702 10702 10701 10700 10699 10698 10697 10696 10695 10693 10692 10693 10694
10751 10749 10746 10744 10742 10739 10737 10735 10733 10731 10729 10727 10725 10723 10722 10721 10719 10718 10716 10714 10712 10711 10709 10707 10707 10706 10705 10704 10702 10701 10701 10700 10699 10696 10695 10693 10692 10691 10690 10689 10689 10688 10687 10687 10686 10684 10684 10683 10681 10680 10680 10680
10744 10742 10739 10737 10734 10732 10729 10727 10725 10722 10720 10718 10716 10714 10713 10711 10709 10707 10705 10704 10701 10699 10698 10696 10695 10694 10693 10692 10690 10689 10689 10688 10686 10684 10683 10681 10679 10678 10677 10676 10676 10675 10675 10674 10673 10671 10671 10670 10669 10668 10667 10666
10737 10734 10731 10729 10726 10724 10721 10719 10717 10714 10712 10709 10707 10705 10703 10702 10699 10697 10695 10693 10691 10689 10687 10685 10683 10682 10680 10679 10678 10677 10676 10675 10674 10672 10671 10669 10667 10666 10664 10663 10662 10662 10661 10660 10659 10658 10657 10657 10656 10655 10654 10653
10729 10726 10723 10720 10718 10716 10713 10711 10709 10706 10704 10701 10698 10696 10695 10693 10690 10688 10686 10684 10681 10679 10677 10674 10673 10671 10669 10667 10665 10664 10663 10662 10661 10660 10659 10657 10655 10653 10652 10651 10649 10648 10648 10647 10646 10645 10644 10643 10642 10641 10641 10640
10721 10718 10716 10713 10710 10708 10705 10703 10701 10698 10696 10693 10690 10688 10686 10684 10682 10679 10677 10674 10672 10669 10666 10664 10662 10661 10658 10655 10654 10652 10651 10650 10648 10648 10647 10645 10644 10642 10640 10639 10638 10636 10635 10634 10633 10632 10631 10629 10628 10627 10627 10626
10714 10712 10709 10706 10703 10701 10698 10695 10693 10690 10688 10685 10682 10680 10678 10676 10673 10671 10669 10666 10663 10659 10657 10654 10652 10650 10647 10644 10643 10641 10640 10638 10636 10636 10635 10633 10631 10630 10629 10628 10626 10625 10624 10622 10621 10620 10619 10617 10616 10614 10613 10612
10707 10705 10702 10699 10696 10693 10690 10688 10685 10682 10680 10677 10674 10671 10669 10666 10664 10661 10659 10657 10654 10650 10647 10645 10642 10640 10636 10634 10632 10631 10628 10627 10625 10624 10623 10621 10619 10617 10617 10615 10614 10613 10611 10610 10609 10608 10607 10605 10604 10603 10601 10600
10700 10698 10695 10691 10688 10685 10682 10679 10676 10673 10670 10668 10665 10662 10659 10656 10654 10651 10648 10646 10643 10640 10637 10635 10632 10630 10626 10624 10622 10620 10618 10615 10614 10612 10611 10609 10608 10606 10604 10603 10602 10601 10599 10598 10597 10595 10594 10594 10592 10590 10589 10589
10693 10690 10687 10683 10680 10676 10673 10669 10666 10663 10660 10657 10654 10651 10648 10645 10643 10640 10636 10634 10631 10629 10626 10624 10621 10618 10616 10613 10611 10609 10606 10605 10603 10600 10599 10597 10596 10594 10592 10591 10590 10589 10587 10585 10584 10583 10581 10581 10580 10578 10578 10577
10684 10681 10678 10674 10670 10666 10663 10659 10656 10652 10649 10646 10642 10639 10636 10633 10631 10628 10624 10621 10619 10616 10614 10611 10609 10606 10604 10602 10599 10597 10594 10593 10592 10589 10586 10585 10583 10582 10580 10579 10578 10576 10575 10573 10572 10570 10569 10568 10567 10566 10565 10564
10675 10671 10667 10663 10659 10656 10652 10648 10645 10642 10638 10635 10631 10627 10624 10621 10618 10615 10611 10608 10605 10603 10601 10598 10595 10593 10591 10589 10587 10585 10582 10580 10579 10577 10574 10572 10571 10569 10568 10566 10565 10564 10562 10561 10559 10558 10557 10556 10555 10554 10553 10551
10664 10660 10656 10652 10648 10644 10640 10637 10634 10630 10626 10623 10619 10615 10612 10608 10605 10601 10598 10595 10592 10589 10587 10584 10581 10579 10577 10575 10574 10572 10570 10568 10566 10564 10561 10559 10557 10556 10555 10553 10552 10551 10549 10547 10547 10545 10544 10543 10542 10541 10541 10540
10651 10648 10644 10641 10636 10632 10629 10625 10621 10617 10614 10610 10606 10602 10598 10595 10591 10587 10584 10581 10578 10575 10572 10569 10567 10565 10563 10561 10560 10558 10556 10554 10552 10551 10549 10546 10544 10542 10541 10541 10539 10538 10535 10534 10533 10532 10531 10530 10529 10528 10528 10527
10641 10637 10633 10630 10625 10621 10617 10612 10608 10604 10600 10596 10592 10588 10584 10580 10577 10573 10570 10566 10564 10561 10558 10555 10552 10550 10548 10546 10545 10543 10541 10540 10538 10536 10535 10533 10530 10528 10528 10527 10526 10524 10521 10520 10519 10518 10517 10517 10515 10514 10514 10513
10631 10626 10622 10618 10613 10609 10604 10600 10595 10590 10586 10582 10578 10574 10570 10566 10562 10558 10555 10552 10548 10546 10543 10540 10538 10535 10533 10532 10530 10528 10526 10525 10524 10522 10520 10518 10516 10514 10513 10513 10512 10510 10508 10506 10505 10503 10503 10502 10501 10501 10500 10499
10620 10614 10610 10605 10600 10595 10591 10586 10581 10576 10572 10567 10563 10559 10554 10550 10547 10543 10540 10536 10533 10530 10528 10525 10523 10521 10519 10517 10515 10513 10511 10509 10508 10507 10505 10503 10502 10500 10498 10498 10497 10495 10494 10493 10491 10489 10488 10487 10487 10486 10486 10485
10608 10602 10597 10592 10586 10581 10576 10571 10566 10560 10555 10551 10546 10542 10538 10534 10530 10527 10523 10520 10517 10514 10512 10509 10507 10505 10503 10501 10500 10498 10496 10494 10492 10491 10489 10488 10486 10485 10483 10482 10482 10480 10479 10479 10477 10475 10474 10473 10473 10472 10471 10471
10596 10590 10584 10578 10572 10567 10561 10556 10551 10545 10539 10534 10530 10525 10521 10517 10513 10510 10506 10503 10500 10498 10495 10493 10491 10489 10487 10485 10484 10483 10481 10478 10476 10475 10474 10472 10471 10470 10468 10467 10466 10465 10464 10463 10462 10461 10460 10459 10458 10457 10457 10456
10583 10577 10570 10563 10557 10551 10546 10540 10534 10528 10522 10517 10513 10508 10504 10500 10496 10492 10489 10486 10483 10481 10479 10477 10475 10473 10471 10469 10468 10466 10465 10463 10461 10459 10457 10456 10455 10454 10453 10452 10451 10450 10449 10448 10447 10446 10445 10444 10444 10443 10442 10441
10569 10562 10555 10548 10542 10535 10529 10523 10517 10511 10505 10500 10495 10491 10487 10482 10479 10475 10471 10469 10466 10464 10462 10460 10458 10456 10454 10452 10450 10449 10448 10446 10445 10442 10441 10440 10439 10438 10438 10436 10435 10434 10433 10433 10432 10430 10430 10429 10429 10428 10428 10427
10555 10547 10540 10534 10527 10520 10514 10507 10500 10493 10487 10483 10478 10474 10469 10464 10460 10457 10454 10451 10449 10447 10444 10443 10441 10439 10437 10435 10433 10431 10430 10429 10428 10426 10424 10423 10422 10421 10421 10421 10420 10418 10417 10417 10416 10415 10414 10414 10413 10412 10412 10412
10539 10531 10524 10518 10511 10504 10497 10490 10483 10476 10470 10466 10461 10456 10451 10446 10442 10439 10436 10433 10431 10429 10427 10425 10424 10422 10420 10418 10415 10413 10412 10411 10410 10409 10408 10406 10405 10404 10403 10404 10403 10402 10401 10400 10399 10399 10398 10398 10397 10397 10396 10396
10523 10514 10507 10500 10493 10485 10478 10471 10464 10458 10452 10448 10443 10437 10432 10428 10424 10421 10419 10416 10414 10412 10410 10409 10407 10404 10402 10400 10399 10397 10396 10394 10393 10392 10391 10390 10389 10388 10386 10386 10386 10386 10385 10385 10384 10383 10382 10381 10381 10381 10381 10381
10506 10497 10489 10482 10475 10467 10459 10452 10446 10440 10434 10429 10424 10419 10414 10410 10407 10404 10402 10400 10398 10397 10395 10393 10390 10388 10386 10384 10383 10382 10380 10379 10378 10376 10376 10374 10373 10372 10371 10370 10369 10369 10370 10370 10369 10369 10368 10366 10365 10364 10364 10365
10489 10479 10471 10465 10457 10449 10442 10435 10429 10422 10417 10411 10407 10402 10398 10394 10391 10389 10387 10386 10384 10382 10380 10377 10375 10373 10371 10370 10369 10368 10366 10365 10364 10362 10361 10361 10359 10358 10358 10357 10356 10355 10355 10355 10355 10355 10354 10353 10352 10350 10349 10350
10471 10461 10453 10446 10439 10432 10425 10419 10413 10407 10401 10396 10392 10387 10383 10380 10377 10375 10374 10373 10371 10368 10366 10364 10362 10360 10358 10357 10356 10355 10354 10352 10351 10349 10349 10348 10347 10346 10345 10344 10343 10342 10341 10342 10342 10342 10341 10340 10339 10337 10336 10336